Location: Vlissingen
(51.4500°N, 3.5830°E)
Time: 13:07:23
(UTC+01:00)

N. Korean satellite - Pass Details

Date: 02 December 2021
Orbit: 447 x 490 km, 97.3° (Epoch: 27 January)

Event Time Altitude Azimuth Distance (km) Brightness Sun altitude
Rises 05:11:49 0° 27° (NNE) 2,477 10.5 -29.9°
Reaches altitude 10° 05:14:22 10° 47° (NE) 1,592 9.7 -29.5°
Maximum altitude 05:16:45 18° 92° (E) 1,186 9.3 -29.1°
Drops below altitude 10° 05:19:07 10° 137° (SE) 1,575 9.6 -28.7°
Sets 05:21:37 0° 157° (SSE) 2,439 10.4 -28.3°
